FW0958 Weather Reports


Display with metric or nautical units.
time (UTC)temp
F
wind
direction
speed
MPH
gust
MPH
rain 1hr
in
rain 24hr
in
rain mn
in
humidity
%
barometer
mb
20260509062707 59 34 0.0 0.0 0.00 0.00 0.00 91 1014.5
20260509062209 59 34 0.0 0.0 0.00 0.00 0.00 91 1014.2
20260509061713 60 34 0.0 0.0 0.00 0.00 0.00 90 1014.2
20260509061708 59 34 0.0 0.0 0.00 0.00 0.00 91 1014.2
20260509060707 60 34 0.0 0.0 0.00 0.00 0.00 90 1014.2
20260509060209 60 34 0.0 0.0 0.00 0.00 0.00 90 1014.4
20260509055708 60 34 0.0 0.0 0.00 0.00 0.00 90 1014.4
20260509055209 60 34 0.0 0.0 0.00 0.00 0.00 90 1014.4
20260509054707 60 34 0.0 0.0 0.00 0.00 0.00 90 1014.5
20260509054206 60 34 0.0 0.0 0.00 0.00 0.00 90 1014.4
20260509053711 60 34 0.0 0.0 0.00 0.00 0.00 90 1014.5
20260509053705 60 34 0.0 0.0 0.00 0.00 0.00 90 1014.5
20260509052707 60 34 0.0 0.0 0.00 0.00 0.00 90 1014.6
20260509052207 60 34 0.0 0.0 0.00 0.00 0.00 89 1014.5
20260509051707 60 34 0.0 0.0 0.00 0.00 0.00 89 1014.7
20260509051213 61 34 0.0 0.0 0.00 0.00 0.00 89 1014.6
20260509051206 60 34 0.0 0.0 0.00 0.00 0.00 89 1014.6
20260509050706 60 34 0.0 0.0 0.00 0.00 0.00 89 1014.6
20260509045703 61 34 0.0 0.0 0.00 0.00 0.00 89 1014.5
20260509045210 61 34 0.0 0.0 0.00 0.00 0.00 89 1014.5
20260509045205 61 34 0.0 0.0 0.00 0.00 0.00 89 1014.5
20260509044211 61 34 0.0 0.0 0.00 0.00 0.00 88 1014.2
20260509044204 61 34 0.0 0.0 0.00 0.00 0.00 89 1014.5
20260509043703 61 34 0.0 0.0 0.00 0.00 0.00 88 1014.4
20260509043203 61 34 0.0 0.0 0.00 0.00 0.00 88 1014.2
20260509042824 61 34 0.0 2.0 0.00 0.00 0.00 88 1014.1
20260509041702 61 34 0.0 3.0 0.00 0.00 0.00 88 1014.1
20260509041201 61 29 0.0 3.0 0.00 0.00 0.00 88 1014.1
20260509040701 62 29 0.0 3.0 0.00 0.00 0.00 87 1014.1
20260509040202 62 29 1.0 3.0 0.00 0.00 0.00 87 1014.2
20260509035702 62 34 1.0 3.0 0.00 0.00 0.00 87 1014.2
20260509035203 62 29 1.0 3.0 0.00 0.00 0.00 87 1014.2
20260509034702 62 39 1.0 3.0 0.00 0.00 0.00 86 1014.1
20260509034201 62 29 1.0 4.0 0.00 0.00 0.00 86 1014.0
20260509033702 62 22 1.0 4.0 0.00 0.00 0.00 86 1014.0
20260509033202 63 18 1.0 4.0 0.00 0.00 0.00 86 1014.0
20260509032701 63 12 1.0 4.0 0.00 0.00 0.00 85 1014.0
20260509032202 63 20 1.0 4.0 0.00 0.00 0.00 85 1013.9
20260509031702 63 39 1.0 5.0 0.00 0.00 0.00 84 1013.8
20260509031200 63 19 2.0 5.0 0.00 0.00 0.00 84 1013.7
20260509030659 64 29 1.0 5.0 0.00 0.00 0.00 84 1013.7
20260509030159 64 22 1.0 8.0 0.00 0.00 0.00 83 1013.6
20260509025659 64 1 2.0 8.0 0.00 0.00 0.00 82 1013.6
20260509025200 65 16 2.0 6.0 0.00 0.00 0.00 82 1013.5
20260509024659 65 29 2.0 6.0 0.00 0.00 0.00 81 1013.6
20260509024159 65 13 1.0 5.0 0.00 0.00 0.00 81 1013.5
20260509023700 66 1 1.0 5.0 0.00 0.00 0.00 80 1013.4
20260509023158 66 338 1.0 5.0 0.00 0.00 0.00 80 1013.5
20260509022658 67 13 2.0 5.0 0.00 0.00 0.00 79 1013.4
20260509022157 67 359 2.0 5.0 0.00 0.00 0.00 78 1013.4
20260509021658 67 7 1.0 4.0 0.00 0.00 0.00 78 1013.4
20260509021159 68 5 1.0 5.0 0.00 0.00 0.00 77 1013.2
20260509020657 68 4 2.0 8.0 0.00 0.00 0.00 76 1013.2
20260509020157 69 22 2.0 8.0 0.00 0.00 0.00 75 1013.2
20260509015656 69 314 1.0 4.0 0.00 0.00 0.00 74 1013.0
20260509015157 70 357 2.0 6.0 0.00 0.00 0.00 73 1013.0
20260509014658 70 29 2.0 6.0 0.00 0.00 0.00 72 1012.9
20260509014154 71 16 1.0 4.0 0.00 0.00 0.00 72 1012.9
20260509013655 71 324 1.0 5.0 0.00 0.00 0.00 71 1013.0
20260509013157 71 2 1.0 5.0 0.00 0.00 0.00 71 1013.0
20260509012659 72 338 2.0 5.0 0.00 0.00 0.00 70 1013.2
20260509012655 72 20 2.0 5.0 0.00 0.00 0.00 70 1013.1
20260509011656 73 334 1.0 6.0 0.00 0.00 0.00 69 1013.1
20260509011155 73 334 1.0 6.0 0.00 0.00 0.00 68 1013.1
20260509010656 73 330 2.0 7.0 0.00 0.00 0.00 68 1013.2
20260509010154 73 305 2.0 7.0 0.00 0.00 0.00 68 1013.1
20260509005654 74 330 1.0 7.0 0.00 0.00 0.00 67 1013.1
20260509005154 74 325 1.0 7.0 0.00 0.00 0.00 67 1013.0
20260509004654 74 328 2.0 5.0 0.00 0.00 0.00 67 1013.1
20260509004158 74 29 2.0 7.0 0.00 0.00 0.00 67 1013.0
20260509004152 74 29 1.0 4.0 0.00 0.00 0.00 66 1013.2
20260509003154 74 297 3.0 7.0 0.00 0.00 0.00 67 1013.0
20260509002659 75 315 2.0 9.0 0.00 0.00 0.00 65 1013.0
20260509002654 75 305 3.0 9.0 0.00 0.00 0.00 66 1013.1
20260509001653 75 10 1.0 7.0 0.00 0.00 0.00 65 1013.1
20260509001153 76 340 2.0 7.0 0.00 0.00 0.00 65 1013.1
20260509000658 76 294 2.0 7.0 0.00 0.00 0.00 65 1013.0
20260509000652 76 315 2.0 7.0 0.00 0.00 0.00 65 1013.1
20260509000318 76 338 2.0 8.0 0.00 0.00 0.00 65 1013.1
20260509000312 76 359 2.0 7.0 0.00 0.00 0.00 64 1013.1
20260508234654 76 334 2.0 9.0 0.00 0.00 0.00 64 1013.2
20260508234154 76 15 2.0 9.0 0.00 0.00 0.00 65 1013.2
20260508233652 76 303 3.0 8.0 0.00 0.00 0.00 65 1013.2
20260508233153 76 5 3.0 9.0 0.00 0.00 0.00 65 1013.3
20260508232654 76 43 3.0 9.0 0.00 0.00 0.00 65 1013.3
20260508232154 76 301 3.0 9.0 0.00 0.00 0.00 64 1013.4
20260508231653 77 320 2.0 9.0 0.00 0.00 0.00 65 1013.3
20260508231153 76 330 3.0 9.0 0.00 0.00 0.00 64 1013.4
20260508230654 76 346 3.0 11.0 0.00 0.00 0.00 65 1013.3
20260508230152 76 341 4.0 11.0 0.00 0.00 0.00 65 1013.4
20260508225658 77 318 3.0 9.0 0.00 0.00 0.00 64 1013.2
20260508225653 77 326 3.0 9.0 0.00 0.00 0.00 64 1013.3
20260508224654 77 61 3.0 10.0 0.00 0.00 0.00 64 1013.3
20260508224154 77 5 3.0 10.0 0.00 0.00 0.00 64 1013.2
20260508223653 77 322 3.0 9.0 0.00 0.00 0.00 64 1013.3
20260508223154 77 3 4.0 9.0 0.00 0.00 0.00 64 1013.4
20260508222652 77 15 4.0 10.0 0.00 0.00 0.00 63 1013.3
20260508222157 78 359 4.0 11.0 0.00 0.00 0.00 63 1013.4
20260508222150 78 29 4.0 12.0 0.00 0.00 0.00 63 1013.5
20260508221652 78 328 4.0 12.0 0.00 0.00 0.00 62 1013.4
20260508220652 78 320 4.0 13.0 0.00 0.00 0.00 63 1013.5
20260508220151 78 9 4.0 13.0 0.00 0.00 0.00 62 1013.5
20260508215650 78 358 4.0 12.0 0.00 0.00 0.00 61 1013.5
20260508215156 79 320 4.0 13.0 0.00 0.00 0.00 61 1013.5
20260508215150 80 0 4.0 13.0 0.00 0.00 0.00 60 1013.5
20260508214152 80 343 4.0 12.0 0.00 0.00 0.00 61 1013.5
20260508213656 80 329 4.0 12.0 0.00 0.00 0.00 59 1013.5
20260508213650 80 315 4.0 12.0 0.00 0.00 0.00 60 1013.5
20260508213310 81 324 4.0 10.0 0.00 0.00 0.00 58 1013.5
20260508212151 81 353 4.0 11.0 0.00 0.00 0.00 58 1013.4
20260508211650 81 24 4.0 12.0 0.00 0.00 0.00 58 1013.5
20260508211149 81 340 3.0 12.0 0.00 0.00 0.00 58 1013.5
20260508210650 82 46 3.0 13.0 0.00 0.00 0.00 57 1013.5
20260508210148 82 340 3.0 13.0 0.00 0.00 0.00 58 1013.5
20260508205649 83 347 2.0 10.0 0.00 0.00 0.00 57 1013.6
20260508205149 83 24 4.0 11.0 0.00 0.00 0.00 57 1013.5
20260508204655 83 313 5.0 11.0 0.00 0.00 0.00 57 1013.5
20260508204650 83 349 4.0 11.0 0.00 0.00 0.00 57 1013.5
20260508203650 83 295 5.0 11.0 0.00 0.00 0.00 56 1013.5
20260508203148 84 314 4.0 10.0 0.00 0.00 0.00 56 1013.6
20260508202650 83 313 3.0 10.0 0.00 0.00 0.00 56 1013.7
20260508202147 83 291 2.0 7.0 0.00 0.00 0.00 57 1013.6
20260508201652 82 326 3.0 10.0 0.00 0.00 0.00 57 1013.9
20260508201647 81 354 3.0 10.0 0.00 0.00 0.00 57 1013.8
20260508200646 82 224 3.0 9.0 0.00 0.00 0.00 55 1013.8
20260508200146 82 261 2.0 8.0 0.00 0.00 0.00 58 1013.8
20260508195646 81 12 1.0 6.0 0.00 0.00 0.00 58 1013.9
20260508195148 80 271 3.0 9.0 0.00 0.00 0.00 59 1014.0
20260508194647 80 311 3.0 9.0 0.00 0.00 0.00 60 1014.2
20260508194147 80 286 3.0 8.0 0.00 0.00 0.00 61 1014.2
20260508193647 79 296 2.0 8.0 0.00 0.00 0.00 61 1014.2
20260508193144 79 334 1.0 4.0 0.00 0.00 0.00 60 1014.5
20260508192645 78 251 1.0 3.0 0.00 0.00 0.00 62 1014.8
20260508192145 78 249 2.0 7.0 0.00 0.00 0.00 62 1014.8
20260508191644 77 276 2.0 7.0 0.00 0.00 0.00 65 1014.9
20260508191145 76 280 1.0 6.0 0.00 0.00 0.00 65 1015.0
20260508190644 76 3 1.0 5.0 0.00 0.00 0.00 64 1014.9
20260508190146 77 345 1.0 5.0 0.00 0.00 0.00 65 1014.9
20260508185645 75 164 0.0 2.0 0.00 0.00 0.00 65 1014.9
20260508185144 74 288 0.0 1.0 0.00 0.00 0.00 68 1015.0
20260508184649 72 298 1.0 4.0 0.00 0.00 0.00 73 1015.2
20260508184645 74 295 0.0 2.0 0.00 0.00 0.00 69 1015.1
20260508183649 73 282 2.0 4.0 0.00 0.00 0.00 72 1015.3
20260508183644 72 318 1.0 4.0 0.00 0.00 0.00 71 1015.3
20260508183304 72 303 1.0 4.0 0.00 0.00 0.00 74 1015.4
20260508182805 72 318 1.0 4.0 0.00 0.00 0.00 72 1015.4
20260508182306 71 323 2.0 8.0 0.00 0.00 0.00 75 1015.4
20260508181807 70 284 2.0 8.0 0.00 0.00 0.00 77 1015.4
20260508180644 70 315 1.0 8.0 0.00 0.00 0.00 76 1015.6
20260508180144 70 292 1.0 4.0 0.00 0.00 0.00 79 1015.6
20260508175641 69 307 1.0 4.0 0.00 0.00 0.00 79 1015.6
20260508175142 68 280 1.0 3.0 0.00 0.00 0.00 79 1015.7
20260508174642 67 293 1.0 4.0 0.00 0.00 0.00 82 1015.6
20260508174143 66 7 1.0 4.0 0.00 0.00 0.00 81 1015.9
20260508173643 66 348 0.0 4.0 0.00 0.00 0.00 81 1015.7
20260508173147 65 139 0.0 3.0 0.00 0.00 0.00 83 1015.7
20260508173143 65 139 1.0 3.0 0.00 0.00 0.00 82 1015.7
20260508172139 65 139 0.0 3.0 0.00 0.00 0.00 83 1015.7
20260508171641 65 137 0.0 3.0 0.00 0.00 0.00 83 1015.7
20260508171139 65 137 0.0 3.0 0.00 0.00 0.00 84 1015.7
20260508170641 64 140 0.0 3.0 0.00 0.00 0.00 84 1015.9
20260508170141 64 141 0.0 1.0 0.00 0.00 0.00 85 1015.8
20260508165641 63 141 0.0 2.0 0.00 0.00 0.00 86 1015.9
20260508165141 63 141 0.0 2.0 0.00 0.00 0.00 86 1015.7
20260508164646 63 141 0.0 3.0 0.00 0.00 0.00 87 1016.0
20260508164641 63 140 0.0 3.0 0.00 0.00 0.00 87 1015.8
20260508163640 62 141 0.0 3.0 0.00 0.00 0.00 87 1015.9
20260508163145 62 143 1.0 4.0 0.00 0.00 0.00 88 1016.0
20260508163140 62 142 0.0 2.0 0.00 0.00 0.00 87 1015.9
20260508162139 62 144 1.0 4.0 0.00 0.00 0.00 88 1016.0
20260508161646 62 153 0.0 3.0 0.00 0.00 0.00 88 1016.1
20260508161642 62 151 1.0 3.0 0.00 0.00 0.00 88 1016.1
20260508160639 62 187 0.0 0.0 0.00 0.00 0.00 88 1016.0
20260508160140 61 188 0.0 0.0 0.00 0.00 0.00 88 1016.1
20260508155641 61 192 0.0 0.0 0.00 0.00 0.00 88 1016.0
20260508155141 61 192 0.0 0.0 0.00 0.00 0.00 89 1016.2
20260508154637 61 193 0.0 0.0 0.00 0.00 0.00 89 1016.1
20260508154137 61 193 0.0 0.0 0.00 0.00 0.00 89 1016.0
20260508153637 61 128 0.0 0.0 0.00 0.00 0.00 89 1016.0
20260508153138 61 128 0.0 0.0 0.00 0.00 0.00 89 1015.9
20260508152639 61 79 0.0 0.0 0.00 0.00 0.00 89 1016.0
20260508152138 61 60 0.0 0.0 0.00 0.00 0.00 89 1016.1
20260508151636 61 60 0.0 0.0 0.00 0.00 0.00 89 1016.1
20260508151137 61 60 0.0 0.0 0.00 0.00 0.00 89 1016.1
20260508150635 61 60 0.0 0.0 0.00 0.00 0.00 89 1016.1
20260508150136 60 60 0.0 0.0 0.00 0.00 0.00 90 1016.1
20260508145635 60 60 0.0 0.0 0.00 0.00 0.00 90 1016.1
20260508145135 60 60 0.0 0.0 0.00 0.00 0.00 90 1016.0
20260508144635 60 211 0.0 0.0 0.00 0.00 0.00 90 1016.0
20260508144142 60 211 0.0 0.0 0.00 0.00 0.00 90 1015.9
20260508144135 60 211 0.0 0.0 0.00 0.00 0.00 90 1016.1
20260508143635 60 211 0.0 0.0 0.00 0.00 0.00 90 1016.0
20260508142633 60 212 0.0 0.0 0.00 0.00 0.00 90 1015.9
20260508142134 60 212 0.0 0.0 0.00 0.00 0.00 90 1016.0
20260508141633 60 212 0.0 0.0 0.00 0.00 0.00 90 1015.9
20260508141134 60 212 0.0 0.0 0.00 0.00 0.00 90 1015.9
20260508140634 60 212 0.0 0.0 0.00 0.00 0.00 90 1015.9
20260508140134 60 212 0.0 0.0 0.00 0.00 0.00 90 1015.9
20260508135633 60 212 0.0 0.0 0.00 0.00 0.00 90 1015.8
20260508135133 60 212 0.0 0.0 0.00 0.00 0.00 90 1015.8
20260508134634 60 212 0.0 0.0 0.00 0.00 0.00 90 1015.8
20260508134133 60 212 0.0 0.0 0.00 0.00 0.00 90 1015.7
20260508133631 60 212 0.0 0.0 0.00 0.00 0.00 90 1015.7
20260508133131 60 213 1.0 3.0 0.00 0.00 0.00 90 1015.7
20260508132631 60 213 1.0 3.0 0.00 0.00 0.00 90 1015.6
20260508132130 60 214 1.0 3.0 0.00 0.00 0.00 90 1015.6
20260508131636 60 216 0.0 1.0 0.00 0.00 0.00 90 1015.5
20260508131631 60 214 0.0 3.0 0.00 0.00 0.00 90 1015.5
20260508131250 60 216 0.0 1.0 0.00 0.00 0.00 90 1015.5
20260508130137 60 216 0.0 1.0 0.00 0.00 0.00 90 1015.5
20260508130133 60 216 0.0 1.0 0.00 0.00 0.00 90 1015.5
20260508125132 60 216 0.0 2.0 0.00 0.00 0.00 90 1015.4
20260508124632 60 216 0.0 2.0 0.00 0.00 0.00 90 1015.4
20260508124136 60 216 0.0 2.0 0.00 0.00 0.00 90 1015.4
20260508124129 60 216 0.0 1.0 0.00 0.00 0.00 90 1015.4
20260508123630 60 216 0.0 1.0 0.00 0.00 0.00 90 1015.5
20260508122630 60 216 0.0 2.0 0.00 0.00 0.00 90 1015.3
20260508122130 60 216 0.0 2.0 0.00 0.00 0.00 90 1015.3
20260508121630 60 216 0.0 2.0 0.00 0.00 0.00 90 1015.3
20260508121130 60 217 0.0 3.0 0.00 0.00 0.00 90 1015.4
20260508120629 60 212 0.0 3.0 0.00 0.00 0.00 90 1015.3
20260508120129 60 212 0.0 3.0 0.00 0.00 0.00 90 1015.3
20260508115636 60 214 0.0 2.0 0.00 0.00 0.00 90 1015.4
20260508115629 60 213 0.0 1.0 0.00 0.00 0.00 90 1015.4
20260508115127 60 214 0.0 1.0 0.00 0.00 0.00 89 1015.4
20260508114752 60 214 0.0 2.0 0.00 0.00 0.00 89 1015.2
20260508114629 60 214 0.0 1.0 0.00 0.00 0.00 90 1015.3
20260508113128 60 214 0.0 1.0 0.00 0.00 0.00 89 1015.4
20260508112626 60 214 0.0 1.0 0.00 0.00 0.00 89 1015.2
20260508112132 60 214 0.0 4.0 0.00 0.00 0.00 89 1015.3
20260508112127 60 214 0.0 2.0 0.00 0.00 0.00 89 1015.3
20260508111743 60 214 0.0 4.0 0.00 0.00 0.00 89 1015.4
20260508110628 60 212 0.0 1.0 0.00 0.00 0.00 89 1015.3
20260508110125 60 212 0.0 1.0 0.00 0.00 0.00 89 1015.3
20260508105626 61 212 0.0 2.0 0.00 0.00 0.00 89 1015.3
20260508105126 61 212 0.0 2.0 0.00 0.00 0.00 89 1015.3
20260508104627 61 212 0.0 4.0 0.00 0.00 0.00 89 1015.3
20260508104126 61 211 0.0 4.0 0.00 0.00 0.00 89 1015.4
20260508103624 61 208 0.0 3.0 0.00 0.00 0.00 89 1015.4
20260508103131 61 207 0.0 1.0 0.00 0.00 0.00 89 1015.5
20260508103126 61 208 0.0 3.0 0.00 0.00 0.00 89 1015.3
20260508102624 61 207 0.0 1.0 0.00 0.00 0.00 89 1015.5
20260508102124 61 207 0.0 1.0 0.00 0.00 0.00 89 1015.5
20260508101123 61 207 0.0 1.0 0.00 0.00 0.00 89 1015.5
20260508100624 61 207 0.0 1.0 0.00 0.00 0.00 89 1015.6
20260508100123 61 207 0.0 1.0 0.00 0.00 0.00 89 1015.5
20260508095628 61 207 0.0 2.0 0.00 0.00 0.00 89 1015.4
20260508095624 61 207 0.0 2.0 0.00 0.00 0.00 89 1015.4
20260508094624 61 207 0.0 2.0 0.00 0.00 0.00 89 1015.4
20260508094128 61 207 0.0 2.0 0.00 0.00 0.00 89 1015.4
20260508094122 61 207 0.0 2.0 0.00 0.00 0.00 89 1015.4
20260508093122 61 206 0.0 0.0 0.00 0.00 0.00 88 1015.5
20260508092624 61 206 0.0 1.0 0.00 0.00 0.00 89 1015.5
20260508092123 61 206 0.0 2.0 0.00 0.00 0.00 89 1015.5
20260508091624 61 206 0.0 2.0 0.00 0.00 0.00 89 1015.4
20260508091123 61 206 0.0 2.0 0.00 0.00 0.00 89 1015.4
20260508090628 61 205 0.0 2.0 0.00 0.00 0.00 89 1015.5
20260508090624 61 205 0.0 2.0 0.00 0.00 0.00 89 1015.4
20260508090240 61 205 0.0 2.0 0.00 0.00 0.00 89 1015.6
20260508085122 61 205 0.0 2.0 0.00 0.00 0.00 89 1015.6
20260508084623 61 204 0.0 1.0 0.00 0.00 0.00 89 1015.6
20260508084128 61 204 0.0 2.0 0.00 0.00 0.00 88 1015.7
20260508084124 61 204 0.0 2.0 0.00 0.00 0.00 88 1015.6
20260508083121 61 233 0.0 1.0 0.00 0.00 0.00 89 1015.7
20260508082622 61 233 0.0 1.0 0.00 0.00 0.00 89 1015.8
20260508082120 61 233 0.0 0.0 0.00 0.00 0.00 89 1015.9
20260508081622 61 233 0.0 1.0 0.00 0.00 0.00 89 1015.9
20260508081127 61 233 0.0 1.0 0.00 0.00 0.00 88 1016.0
20260508081122 61 233 0.0 1.0 0.00 0.00 0.00 89 1015.9
20260508080120 61 233 0.0 1.0 0.00 0.00 0.00 89 1016.0
20260508075619 61 233 0.0 1.0 0.00 0.00 0.00 88 1016.0
20260508075118 61 233 0.0 1.0 0.00 0.00 0.00 88 1016.0
20260508074620 61 233 0.0 3.0 0.00 0.00 0.00 88 1016.1
20260508074127 61 259 0.0 1.0 0.00 0.00 0.00 88 1016.0
20260508074116 61 233 1.0 3.0 0.00 0.00 0.00 88 1016.0
20260508073618 61 233 0.0 3.0 0.00 0.00 0.00 88 1016.0
20260508073117 61 233 0.0 3.0 0.00 0.00 0.00 88 1016.1
20260508072120 61 261 1.0 4.0 0.00 0.00 0.00 88 1016.1
20260508072116 61 261 0.0 2.0 0.00 0.00 0.00 88 1016.1
20260508071116 61 261 1.0 4.0 0.00 0.00 0.00 88 1016.2
20260508070617 61 271 0.0 3.0 0.00 0.00 0.00 88 1016.3
20260508070122 61 269 0.0 0.0 0.00 0.00 0.00 89 1016.4
20260508070116 61 272 0.0 2.0 0.00 0.00 0.00 89 1016.3
20260508065121 61 269 0.0 2.0 0.00 0.00 0.00 89 1016.4
20260508065116 61 269 0.0 1.0 0.00 0.00 0.00 88 1016.3
20260508064121 61 264 0.0 2.0 0.00 0.00 0.00 89 1016.4
20260508064116 61 269 0.0 2.0 0.00 0.00 0.00 89 1016.3
20260508063117 61 264 0.0 2.0 0.00 0.00 0.00 89 1016.4